Midlothian, TX

11:40 PM CDT on October 19, 2017 (GMT -0500)
Midlothian

Weather History for KJWY - November, 2012

Change the Weather History Date:

Thursday, November 22, 2012

  Actual Average (KRBD) Record (KRBD)
Temperature  
Mean Temperature 62 °F -  
Max Temperature 73 °F 61 °F 80 °F (1999)
Min Temperature 50 °F 44 °F 28 °F (2015)
Degree Days  
Heating Degree Days 4    
Growing Degree Days 12 (Base 50)    
Moisture  
Dew Point 47 °F    
Average Humidity 58    
Maximum Humidity 76    
Minimum Humidity 38    
Precipitation  
Precipitation 0.00 in - - ()
Sea Level Pressure  
Sea Level Pressure 30.11 in    
Wind  
Wind Speed 8 mph (SSE)    
Max Wind Speed 20 mph    
Max Gust Speed 26 mph    
Visibility 10 miles    
Events Rain    
Averages and records for this station are not official NWS values.
T = Trace of Precipitation, MM = Missing Value Source: NWS Daily Summary

Daily Weather History Graph

Daily Weather History Graph

Search for Another Location

Airport or City:

Trip Planner

Search our weather history database for the weather conditions in past years. The results will help you decide how hot, cold, wet, or windy it might be!

Date:

Astronomy

Nov. 22, 2012 Rise Set
Actual Time 7:03 AM CST 5:23 PM CST
Civil Twilight 6:37 AM CST 5:50 PM CST
Nautical Twilight 6:07 AM CST 6:20 PM CST
Astronomical Twilight 5:38 AM CST 6:49 PM CST
Moon 1:54 PM CST (11/22) 1:41 AM CST (11/22)
Length of Visible Light 11h 12m
Length of Day
10h 19m
Waxing Gibbous, 71% of the Moon is Illuminated
Nov 22
Waxing Gibbous
Nov 28
Full
Dec 6
Last Quarter
Dec 13
New
Dec 19
First Quarter

Hourly Weather History & Observations

Time (CST) Temp. Dew Point Humidity Pressure Visibility Wind Dir Wind Speed Gust Speed Precip Events Conditions
12:15 AM 55.4 °F 42.8 °F 63% 30.14 in 10.0 mi SSE 5.8 mph - N/A   Clear
12:35 AM 55.4 °F 42.8 °F 63% 30.13 in 10.0 mi SE 5.8 mph - N/A   Clear
12:55 AM 55.4 °F 42.8 °F 63% 30.13 in 10.0 mi SSE 5.8 mph - N/A   Clear
1:15 AM 55.4 °F 42.8 °F 63% 30.12 in 10.0 mi SSE 5.8 mph - N/A   Clear
1:35 AM 55.4 °F 42.8 °F 63% 30.12 in 10.0 mi SSE 5.8 mph - N/A   Clear
1:55 AM 55.4 °F 42.8 °F 63% 30.12 in 10.0 mi SSE 6.9 mph - N/A   Clear
2:15 AM 55.4 °F 42.8 °F 63% 30.12 in 10.0 mi SSE 5.8 mph - N/A   Clear
2:35 AM 55.4 °F 42.8 °F 63% 30.12 in 10.0 mi SSE 5.8 mph - N/A   Clear
2:55 AM 55.4 °F 42.8 °F 63% 30.12 in 10.0 mi SSE 4.6 mph - N/A   Clear
3:15 AM 55.4 °F 42.8 °F 63% 30.12 in 10.0 mi SSE 5.8 mph - N/A   Clear
3:35 AM 55.4 °F 42.8 °F 63% 30.12 in 10.0 mi SSE 5.8 mph - N/A   Clear
3:55 AM 53.6 °F 42.8 °F 67% 30.13 in 10.0 mi South 5.8 mph - N/A   Clear
4:15 AM 53.6 °F 42.8 °F 67% 30.12 in 10.0 mi SSE 5.8 mph - N/A   Clear
4:35 AM 55.4 °F 42.8 °F 63% 30.13 in 10.0 mi South 5.8 mph - N/A   Clear
4:55 AM 53.6 °F 42.8 °F 67% 30.14 in 10.0 mi SSW 3.5 mph - N/A   Clear
5:15 AM 53.6 °F 42.8 °F 67% 30.14 in 10.0 mi South 4.6 mph - N/A   Clear
5:35 AM 53.6 °F 42.8 °F 67% 30.13 in 10.0 mi SSE 4.6 mph - N/A   Clear
5:55 AM 51.8 °F 42.8 °F 71% 30.13 in 10.0 mi SSE 3.5 mph - N/A   Clear
6:15 AM 51.8 °F 42.8 °F 71% 30.13 in 10.0 mi SSE 4.6 mph - N/A   Clear
6:35 AM 51.8 °F 42.8 °F 71% 30.12 in 10.0 mi SSE 5.8 mph - N/A   Clear
6:55 AM 50.0 °F 42.8 °F 76% 30.12 in 10.0 mi SSE 4.6 mph - N/A   Clear
7:15 AM 50.0 °F 42.8 °F 76% 30.13 in 10.0 mi SSE 5.8 mph - N/A   Clear
7:55 AM 51.8 °F 42.8 °F 71% 30.14 in 10.0 mi SSE 6.9 mph - N/A   Clear
8:15 AM 53.6 °F 44.6 °F 72% 30.14 in 10.0 mi South 6.9 mph - N/A   Clear
8:35 AM 59.0 °F 46.4 °F 63% 30.15 in 10.0 mi South 9.2 mph - N/A   Clear
8:55 AM 62.6 °F 48.2 °F 59% 30.15 in 10.0 mi South 9.2 mph - N/A   Clear
9:15 AM 62.6 °F 48.2 °F 59% 30.15 in 10.0 mi SSE 8.1 mph - N/A   Clear
9:35 AM 62.6 °F 48.2 °F 59% 30.15 in 10.0 mi South 10.4 mph - N/A   Clear
9:55 AM 66.2 °F 46.4 °F 49% 30.15 in 10.0 mi SSW 13.8 mph 26.5 mph N/A   Clear
10:15 AM 66.2 °F 50.0 °F 56% 30.16 in 10.0 mi SSW 11.5 mph 17.3 mph N/A   Clear
10:35 AM 68.0 °F 50.0 °F 52% 30.15 in 10.0 mi SSW 13.8 mph 19.6 mph N/A   Clear
10:55 AM 69.8 °F 42.8 °F 38% 30.15 in 10.0 mi South 19.6 mph 24.2 mph N/A   Clear
11:15 AM 69.8 °F 44.6 °F 40% 30.14 in 10.0 mi South 15.0 mph 21.9 mph N/A   Clear
11:55 AM 71.6 °F 46.4 °F 41% 30.11 in 10.0 mi South 17.3 mph 21.9 mph N/A   Scattered Clouds
12:15 PM 71.6 °F 44.6 °F 38% 30.10 in 10.0 mi South 17.3 mph - N/A   Scattered Clouds
12:35 PM 73.4 °F 46.4 °F 38% 30.09 in 10.0 mi South 18.4 mph - N/A   Scattered Clouds
12:55 PM 71.6 °F 46.4 °F 41% 30.08 in 10.0 mi SSW 17.3 mph - N/A   Clear
1:15 PM 71.6 °F 46.4 °F 41% 30.08 in 10.0 mi South 18.4 mph - N/A   Clear
1:35 PM 71.6 °F 46.4 °F 41% 30.06 in 10.0 mi South 17.3 mph 21.9 mph N/A   Scattered Clouds
1:55 PM 71.6 °F 48.2 °F 43% 30.05 in 10.0 mi South 13.8 mph 20.7 mph N/A   Clear
2:15 PM 73.4 °F 46.4 °F 38% 30.05 in 10.0 mi South 19.6 mph - N/A   Clear
2:35 PM 73.4 °F 46.4 °F 38% 30.05 in 10.0 mi South 17.3 mph 25.3 mph N/A   Clear
2:55 PM 73.4 °F 46.4 °F 38% 30.04 in 10.0 mi South 17.3 mph - N/A   Clear
3:15 PM 73.4 °F 48.2 °F 41% 30.04 in 10.0 mi South 19.6 mph 23.0 mph N/A   Clear
3:35 PM 73.4 °F 48.2 °F 41% 30.04 in 10.0 mi South 19.6 mph 25.3 mph N/A   Clear
3:55 PM 71.6 °F 48.2 °F 43% 30.04 in 10.0 mi South 16.1 mph - N/A   Clear
4:15 PM 71.6 °F 50.0 °F 46% 30.05 in 10.0 mi South 13.8 mph 19.6 mph N/A   Clear
4:35 PM 71.6 °F 50.0 °F 46% 30.05 in 10.0 mi South 11.5 mph - N/A   Scattered Clouds
4:55 PM 69.8 °F 50.0 °F 49% 30.05 in 10.0 mi South 9.2 mph - N/A Rain Light Rain
5:15 PM 68.0 °F 51.8 °F 56% 30.05 in 10.0 mi South 11.5 mph - N/A Rain Light Rain
5:35 PM 68.0 °F 51.8 °F 56% 30.05 in 10.0 mi South 9.2 mph - N/A   Mostly Cloudy
5:55 PM 69.8 °F 51.8 °F 53% 30.06 in 10.0 mi South 8.1 mph - N/A Rain Light Rain
6:15 PM 68.0 °F 51.8 °F 56% 30.06 in 10.0 mi SSE 8.1 mph - N/A Rain Light Rain
6:35 PM 68.0 °F 51.8 °F 56% 30.06 in 10.0 mi SSE 5.8 mph - N/A   Mostly Cloudy
6:55 PM 68.0 °F 50.0 °F 52% 30.07 in 10.0 mi SE 5.8 mph - N/A   Mostly Cloudy
7:55 PM 64.4 °F 50.0 °F 59% 30.09 in 10.0 mi SSE 5.8 mph - N/A   Clear
8:15 PM 62.6 °F 50.0 °F 63% 30.10 in 10.0 mi SSE 5.8 mph - N/A   Clear
8:35 PM 62.6 °F 50.0 °F 63% 30.10 in 10.0 mi SSE 5.8 mph - N/A   Clear
8:55 PM 62.6 °F 50.0 °F 63% 30.10 in 10.0 mi SSE 4.6 mph - N/A   Clear
9:15 PM 60.8 °F 50.0 °F 68% 30.10 in 10.0 mi SE 5.8 mph - N/A   Clear
9:35 PM 60.8 °F 50.0 °F 68% 30.11 in 10.0 mi SSE 5.8 mph - N/A   Clear
9:55 PM 60.8 °F 50.0 °F 68% 30.11 in 10.0 mi SSE 5.8 mph - N/A   Clear
10:15 PM 59.0 °F 50.0 °F 72% 30.11 in 10.0 mi SSE 5.8 mph - N/A   Clear
10:35 PM 59.0 °F 50.0 °F 72% 30.11 in 10.0 mi SSE 5.8 mph - N/A   Clear
10:55 PM 59.0 °F 50.0 °F 72% 30.11 in 10.0 mi SSE 5.8 mph - N/A   Clear
11:15 PM 59.0 °F 50.0 °F 72% 30.12 in 10.0 mi SSE 4.6 mph - N/A   Clear
11:35 PM 59.0 °F 48.2 °F 67% 30.12 in 10.0 mi SSE 4.6 mph - N/A   Clear
11:55 PM 57.2 °F 48.2 °F 72% 30.12 in 10.0 mi SSE 3.5 mph - N/A   Clear